Weather History for KFDR - November, 2013

Change the Weather History Date:

Sunday, November 3, 2013

  Actual Average (KLTS) Record (KLTS)
Temperature  
Mean Temperature 52 °F -  
Max Temperature 66 °F 63 °F 91 °F (2005)
Min Temperature 39 °F 42 °F 33 °F (1999)
Degree Days  
Heating Degree Days 14    
Growing Degree Days 2 (Base 50)    
Moisture  
Dew Point 35 °F    
Average Humidity 52    
Maximum Humidity 77    
Minimum Humidity 29    
Precipitation  
Precipitation 0.00 in - - ()
Sea Level Pressure  
Sea Level Pressure 29.99 in    
Wind  
Wind Speed 12 mph (SSE)    
Max Wind Speed 29 mph    
Max Gust Speed 36 mph    
Visibility 10 miles    
Events Rain    
Averages and records for this station are not official NWS values.
T = Trace of Precipitation, MM = Missing Value Source: NWS Daily Summary

Daily Weather History Graph

Daily Weather History Graph

Search for Another Location

Airport or City:

Trip Planner

Search our weather history database for the weather conditions in past years. The results will help you decide how hot, cold, wet, or windy it might be!

Date:

Astronomy

Nov. 03, 2013 Rise Set
Actual Time 6:58 AM CST 5:40 PM CST
Civil Twilight 6:31 AM CST 6:06 PM CST
Nautical Twilight 6:02 AM CST 6:36 PM CST
Astronomical Twilight 5:32 AM CST 7:05 PM CST
Moon 7:02 AM CST (11/3) 5:58 PM CST (11/3)
Length of Visible Light 11h 34m
Length of Day
10h 42m
New Moon, 0% of the Moon is Illuminated
Nov 3
New Moon
Nov 9
First Quarter
Nov 17
Full
Nov 25
Last Quarter
Dec 2
New

Hourly Weather History & Observations

Time (CST) Temp. Windchill Dew Point Humidity Pressure Visibility Wind Dir Wind Speed Gust Speed Precip Events Conditions
12:53 AM 45.0 °F 40.6 °F 33.1 °F 63% 30.12 in 10.0 mi SE 8.1 mph - N/A   Clear
1:53 AM 44.1 °F 40.1 °F 34.0 °F 68% 30.12 in 10.0 mi SSE 6.9 mph - N/A   Clear
1:53 AM 44.1 °F 40.1 °F 33.1 °F 65% 30.11 in 10.0 mi SSE 6.9 mph - N/A   Clear
2:53 AM 43.0 °F 39.5 °F 33.1 °F 68% 30.10 in 10.0 mi SSE 5.8 mph - N/A   Clear
3:53 AM 42.1 °F 38.4 °F 33.1 °F 70% 30.08 in 10.0 mi SE 5.8 mph - N/A   Clear
4:53 AM 42.1 °F 39.2 °F 32.0 °F 67% 30.08 in 10.0 mi SSE 4.6 mph - N/A   Clear
5:53 AM 41.0 °F 36.4 °F 32.0 °F 70% 30.07 in 10.0 mi SE 6.9 mph - N/A   Clear
6:53 AM 39.9 °F 33.9 °F 33.1 °F 77% 30.07 in 10.0 mi SE 9.2 mph - N/A   Clear
7:53 AM 44.1 °F 38.6 °F 34.0 °F 68% 30.06 in 10.0 mi SE 10.4 mph - N/A   Clear
8:53 AM 51.1 °F - 35.1 °F 54% 30.07 in 10.0 mi SSE 16.1 mph - N/A   Clear
9:53 AM 60.1 °F - 34.0 °F 38% 30.05 in 10.0 mi South 25.3 mph 29.9 mph N/A   Clear
10:53 AM 64.0 °F - 33.1 °F 31% 30.00 in 10.0 mi SSE 28.8 mph 35.7 mph N/A   Clear
11:53 AM 64.0 °F - 32.0 °F 30% 29.99 in 10.0 mi South 24.2 mph 29.9 mph N/A   Clear
12:53 PM 64.9 °F - 32.0 °F 29% 29.96 in 10.0 mi South 23.0 mph 29.9 mph N/A   Clear
1:53 PM 64.9 °F - 32.0 °F 29% 29.92 in 10.0 mi South 23.0 mph 33.4 mph N/A   Clear
2:53 PM 64.0 °F - 33.1 °F 31% 29.91 in 10.0 mi South 20.7 mph 28.8 mph N/A   Clear
3:53 PM 64.0 °F - 34.0 °F 33% 29.85 in 10.0 mi SSE 23.0 mph 28.8 mph N/A   Clear
4:53 PM 62.1 °F - 35.1 °F 37% 29.86 in 10.0 mi SSE 18.4 mph - N/A   Clear
5:53 PM 60.1 °F - 36.0 °F 41% 29.88 in 10.0 mi SSE 16.1 mph - N/A   Clear
6:53 PM 59.0 °F - 37.0 °F 44% 29.89 in 10.0 mi SE 17.3 mph - N/A   Clear
7:53 PM 59.0 °F - 37.9 °F 46% 29.90 in 10.0 mi SSE 15.0 mph - N/A   Clear
8:53 PM 59.0 °F - 39.9 °F 49% 29.88 in 10.0 mi SSE 18.4 mph - 0.00 in Rain Light Rain
9:53 PM 57.9 °F - 42.1 °F 56% 29.89 in 10.0 mi South 16.1 mph - 0.00 in Rain Light Rain
10:53 PM 54.0 °F - 46.0 °F 75% 29.88 in 10.0 mi SSE 10.4 mph - 0.00 in   Overcast